FW3928 Weather Reports


time (UTC)temp
F
wind
direction
speed
knots
gust
knots
rain 1hr
in
rain 24hr
in
rain mn
in
humidity
%
barometer
mb
20260505091611 40 248 1.7 5.2 0.00 0.00 0.00 92 1011.6
20260505090105 40 245 1.7 3.5 0.00 0.00 0.00 91 1011.2
20260505084558 40 245 1.7 4.3 0.00 0.00 0.00 91 1011.1
20260505083101 40 229 2.6 6.1 0.00 0.00 0.00 91 1010.7
20260505081558 40 250 2.6 7.0 0.00 0.00 0.00 91 1010.5
20260505080051 41 246 1.7 3.5 0.00 0.00 0.00 89 1010.3
20260505074548 42 246 0.9 4.3 0.00 0.03 0.00 88 1010.0
20260505073046 42 247 4.3 9.6 0.00 0.03 0.00 89 1009.7
20260505071548 42 254 4.3 7.8 0.00 0.03 0.00 89 1009.3
20260505070041 42 258 4.3 8.7 0.00 0.03 0.00 90 1009.1
20260505064543 41 249 3.5 7.8 0.00 0.04 0.00 90 1008.9
20260505063039 41 238 2.6 7.8 0.00 0.04 0.00 91 1008.6
20260505061537 40 247 4.3 8.7 0.00 0.04 0.00 91 1008.2
20260505060036 40 206 5.2 9.6 0.00 0.05 0.00 92 1007.9
20260505054529 39 236 1.7 6.1 0.00 0.05 0.00 92 1007.8
20260505053029 39 264 0.0 0.0 0.00 0.05 0.00 91 1007.7
20260505051528 39 264 0.0 0.0 0.00 0.05 0.00 90 1007.7
20260505041517 41 239 4.3 8.7 0.00 0.05 0.00 89 1006.6
20260505040015 42 207 6.1 10.4 0.00 0.05 0.00 88 1006.5
20260505034510 42 210 6.1 10.4 0.00 0.05 0.00 87 1006.2
20260505033107 42 204 7.0 13.9 0.00 0.05 0.00 86 1006.1
20260505031505 43 214 5.2 10.4 0.00 0.05 0.00 85 1005.8
20260505030002 43 205 5.2 9.6 0.00 0.05 0.05 84 1005.6
20260505024559 44 220 7.0 15.6 0.00 0.05 0.05 83 1005.3
20260505023058 44 220 7.8 15.6 0.00 0.05 0.05 81 1005.2
20260505021557 45 218 5.2 12.2 0.00 0.05 0.05 80 1005.0
20260505020105 44 179 6.1 10.4 0.00 0.05 0.05 81 1004.9
20260505014605 43 227 2.6 7.0 0.00 0.06 0.05 81 1005.0
20260505013055 44 251 0.9 5.2 0.00 0.06 0.05 80 1005.1
20260505011554 45 199 4.3 7.8 0.00 0.06 0.05 78 1005.1
20260505010055 46 198 4.3 7.0 0.00 0.06 0.05 76 1005.0
20260505004555 46 216 4.3 8.7 0.00 0.11 0.05 74 1004.9
20260505003053 45 216 4.3 8.7 0.00 0.11 0.05 76 1004.6
20260505001550 45 202 7.0 13.9 0.00 0.11 0.05 76 1004.6
20260505000054 45 200 7.0 12.2 0.00 0.11 0.05 75 1004.3
20260504234544 45 202 7.0 12.2 0.00 0.31 0.05 75 1003.9
20260504233044 46 185 8.7 12.2 0.00 0.31 0.05 74 1003.8
20260504231542 47 203 6.1 12.2 0.00 0.31 0.05 72 1003.6
20260504230046 48 201 7.0 10.4 0.00 0.65 0.05 68 1003.4
20260504224545 52 222 8.7 17.4 0.00 0.65 0.05 59 1003.2
20260504223038 53 232 12.2 20.0 0.00 0.65 0.05 55 1003.1
20260504221538 54 233 10.4 16.5 0.00 0.65 0.05 56 1002.7
20260504220035 54 229 11.3 20.0 0.00 0.84 0.05 56 1002.8
20260504214534 54 253 11.3 20.9 0.00 0.84 0.05 58 1002.5
20260504213033 54 247 13.0 21.7 0.00 0.84 0.05 58 1002.4
20260504211533 54 233 8.7 22.6 0.00 0.84 0.05 60 1002.3
20260504210036 54 254 13.9 23.5 0.00 0.89 0.05 59 1002.1
20260504204532 54 250 11.3 26.1 0.00 0.89 0.05 57 1001.8
20260504203027 54 242 16.5 27.8 0.00 0.89 0.05 54 1001.7
20260504201525 54 258 13.0 22.6 0.00 0.89 0.05 56 1001.1
20260504200021 54 213 12.2 25.2 0.00 0.90 0.05 59 1000.8
20260504194521 53 266 11.3 26.1 0.00 0.90 0.05 63 1000.5
20260504193018 53 236 13.0 34.8 0.00 0.90 0.05 65 1000.2
20260504191515 53 228 16.5 29.5 0.00 0.90 0.05 66 1000.1
20260504190012 52 245 15.6 27.8 0.00 0.91 0.05 70 999.7
20260504184510 52 232 13.9 26.9 0.00 0.91 0.05 71 999.8
20260504183010 51 209 14.8 26.1 0.00 0.91 0.05 74 999.5
20260504181506 51 254 14.8 29.5 0.00 0.91 0.05 76 999.4
20260504180001 49 235 14.8 23.5 0.00 0.91 0.05 78 999.4
20260504174601 48 246 10.4 21.7 0.00 0.91 0.05 80 999.1
20260504173108 48 263 16.5 33.9 0.00 0.91 0.05 79 998.8
20260504171601 47 258 12.2 26.9 0.00 0.91 0.05 82 998.4
20260504160142 43 264 14.8 25.2 0.00 0.91 0.05 91 996.7
20260504100140 37 264 14.8 24.3 0.00 0.91 0.05 93 982.2